�N����,����,�~����,�C��,���x,�C��,����,���ϕ���,�ő�u�ԕ���,�ő厞����,���˗�,�I�_���x,�n�����x,�ő啗���N��,DTYPE
"20/12/19","00:10",0.0,5.5,73.5,1015.9,289.7,3.2,6.7,315.8,0.00,1.2,6.7,"00:06:14",1
"20/12/19","00:20",0.0,5.5,73.6,1015.6,295.4,3.9,5.8,315.2,0.00,1.2,6.7,"00:14:16",1
"20/12/19","00:30",0.0,5.4,73.9,1015.6,304.8,3.6,5.9,332.2,0.00,1.2,6.5,"00:21:36",1
"20/12/19","00:40",0.0,5.4,74.2,1015.9,308.0,3.6,7.2,325.9,0.00,1.2,6.5,"00:37:36",1
"20/12/19","00:50",0.0,5.4,74.4,1016.1,295.3,3.1,6.0,317.0,0.00,1.3,6.7,"00:46:32",1
"20/12/19","01:00",0.0,5.4,74.5,1015.6,300.5,3.4,4.7,270.5,0.00,1.3,6.8,"00:53:20",1
"20/12/19","01:10",0.0,5.2,74.7,1015.4,305.8,3.5,6.2,321.9,0.00,1.1,6.7,"01:02:00",1
"20/12/19","01:20",0.0,5.0,75.1,1015.6,312.8,3.4,5.8,342.9,0.00,1.0,6.6,"01:13:20",1
"20/12/19","01:30",0.0,4.8,75.7,1015.4,289.7,2.8,5.1,300.3,0.00,0.9,6.6,"01:20:32",1
"20/12/19","01:40",0.0,4.7,76.3,1015.2,286.5,2.7,4.2,328.0,0.00,0.9,6.5,"01:37:20",1
"20/12/19","01:50",0.0,4.5,76.8,1015.4,301.8,2.7,5.5,320.9,0.00,0.8,6.7,"01:45:52",1
"20/12/19","02:00",0.0,4.4,77.4,1015.2,305.7,2.5,3.7,303.4,0.00,0.8,6.5,"01:52:48",1
"20/12/19","02:10",0.0,4.5,78.0,1015.4,297.9,2.8,6.6,323.4,0.00,1.0,6.6,"02:07:12",1
"20/12/19","02:20",0.0,4.4,78.1,1015.4,293.0,2.1,3.7,327.7,0.00,1.0,6.7,"02:15:04",1
"20/12/19","02:30",0.0,4.0,78.4,1015.4,301.7,1.8,3.7,318.6,0.00,0.6,6.7,"02:25:20",1
"20/12/19","02:40",0.0,3.9,79.1,1015.6,313.7,2.2,3.3,327.2,0.00,0.7,6.5,"02:36:16",1
"20/12/19","02:50",0.0,3.7,79.6,1015.4,319.0,2.2,4.3,319.2,0.00,0.5,6.6,"02:43:44",1
"20/12/19","03:00",0.0,3.5,80.6,1015.2,324.1,2.3,4.9,319.9,0.00,0.5,6.4,"02:59:04",1
"20/12/19","03:10",0.0,3.6,81.2,1015.4,313.9,2.6,4.3,338.0,0.00,0.7,6.2,"03:07:04",1
"20/12/19","03:20",0.0,3.4,81.7,1015.4,330.3,1.7,2.5,349.1,0.00,0.6,6.4,"03:12:40",1
"20/12/19","03:30",0.0,3.1,82.4,1015.2,337.0,2.0,3.2,340.0,0.00,0.4,6.3,"03:27:44",1
"20/12/19","03:40",0.0,2.9,83.1,1015.4,322.2,1.8,3.4,331.1,0.00,0.4,6.3,"03:30:16",1
"20/12/19","03:50",0.0,2.6,83.7,1015.2,285.4,1.3,2.7,315.3,0.00,0.2,6.2,"03:47:28",1
"20/12/19","04:00",0.0,2.6,84.5,1014.7,323.7,2.0,2.8,331.5,0.00,0.3,6.2,"03:53:52",1
"20/12/19","04:10",0.0,2.5,85.0,1014.5,307.4,1.2,2.0,316.8,0.00,0.3,6.4,"04:06:08",1
"20/12/19","04:20",0.0,2.4,85.5,1014.5,319.8,1.6,2.6,318.3,0.00,0.3,6.0,"04:14:08",1
"20/12/19","04:30",0.0,2.1,86.2,1014.7,302.7,1.7,2.9,307.9,0.00,0.1,6.3,"04:28:56",1
"20/12/19","04:40",0.0,3.0,87.0,1014.7,283.9,1.7,3.2,277.3,0.00,1.1,6.3,"04:37:20",1
"20/12/19","04:50",0.0,3.8,87.2,1014.9,296.1,2.2,3.4,329.6,0.00,1.9,6.3,"04:45:04",1
"20/12/19","05:00",0.0,4.3,87.2,1014.7,308.5,3.2,5.4,322.6,0.00,2.4,6.4,"04:51:28",1
"20/12/19","05:10",0.0,4.4,87.4,1015.2,315.5,3.7,5.7,332.1,0.00,2.5,6.4,"05:08:24",1
"20/12/19","05:20",0.0,4.3,87.8,1014.9,319.1,4.0,6.3,313.5,0.00,2.5,6.4,"05:18:24",1
"20/12/19","05:30",0.0,4.2,88.2,1014.7,306.2,3.1,5.1,327.3,0.00,2.5,6.4,"05:28:16",1
"20/12/19","05:40",0.0,4.2,88.6,1014.9,303.3,2.8,5.8,330.2,0.00,2.5,6.2,"05:31:04",1
"20/12/19","05:50",0.0,4.2,88.9,1015.2,314.2,3.0,4.3,335.7,0.00,2.6,6.2,"05:43:36",1
"20/12/19","06:00",0.0,4.2,89.1,1015.2,312.4,2.7,5.0,311.5,0.00,2.6,6.2,"05:50:48",1
"20/12/19","06:10",0.0,4.1,89.4,1014.7,294.3,2.6,3.9,303.5,0.00,2.6,6.5,"06:07:02",1
"20/12/19","06:20",0.0,4.0,89.7,1015.2,299.7,2.7,4.3,317.5,0.00,2.5,6.4,"06:19:54",1
"20/12/19","06:30",0.0,4.0,90.0,1015.2,297.5,2.6,3.9,323.7,0.00,2.6,6.4,"06:28:48",1
"20/12/19","06:40",0.0,4.0,90.2,1015.2,290.5,2.6,4.2,315.3,0.00,2.6,6.3,"06:34:40",1
"20/12/19","06:50",0.0,3.9,90.4,1015.4,297.1,2.2,3.3,287.1,0.00,2.5,6.5,"06:47:50",1
"20/12/19","07:00",0.0,4.0,90.6,1015.4,298.8,2.3,4.2,345.0,0.00,2.6,6.5,"06:58:38",1
"20/12/19","07:10",0.0,4.0,90.7,1014.9,278.7,2.3,4.7,295.7,0.00,2.7,6.1,"07:07:48",1
"20/12/19","07:20",0.0,4.1,90.7,1015.4,279.3,2.5,4.2,311.5,0.00,2.8,6.3,"07:16:48",1
"20/12/19","07:30",0.0,4.1,90.7,1015.9,275.4,2.1,3.9,302.3,0.00,2.8,6.5,"07:24:24",1
"20/12/19","07:40",0.0,4.2,90.7,1015.6,277.6,2.3,3.6,293.3,0.00,2.9,6.3,"07:33:04",1
"20/12/19","07:50",0.0,4.4,90.6,1015.6,283.6,2.7,4.3,288.1,0.00,3.0,6.3,"07:44:32",1
"20/12/19","08:00",0.0,4.5,90.5,1015.9,273.8,2.2,5.1,321.6,0.03,3.1,6.4,"07:55:04",1
"20/12/19","08:10",0.0,4.8,90.3,1015.6,268.7,2.5,4.4,265.2,0.06,3.4,6.6,"08:07:12",1
"20/12/19","08:20",0.0,5.2,90.0,1016.4,274.8,3.1,5.0,311.3,0.09,3.7,6.7,"08:12:00",1
"20/12/19","08:30",0.0,5.4,89.8,1016.6,255.4,2.0,2.0,255.4,0.12,3.9,6.7,"08:21:00",1
"20/12/19","08:40",0.0,5.7,88.9,1016.6,292.1,1.7,2.7,295.8,0.13,4.1,6.9,"08:37:58",1
"20/12/19","08:50",0.0,5.5,88.0,1016.6,284.5,1.7,2.1,289.0,0.10,3.7,6.7,"08:41:32",1
"20/12/19","09:00",0.0,5.7,87.3,1016.6,271.8,2.3,3.5,285.4,0.15,3.8,7.1,"08:58:34",1
"20/12/19","09:10",0.0,5.5,86.3,1017.1,266.3,2.3,3.3,278.7,0.07,3.4,7.0,"09:00:52",1
"20/12/19","09:20",0.0,5.5,85.7,1016.6,273.0,1.3,2.8,285.1,0.09,3.3,7.0,"09:19:48",1
"20/12/19","09:30",0.0,5.6,85.2,1016.6,273.6,1.8,2.7,266.3,0.09,3.4,7.2,"09:26:42",1
"20/12/19","09:40",0.0,5.6,84.9,1016.8,281.7,1.6,2.5,271.5,0.07,3.3,7.1,"09:34:06",1
"20/12/19","09:50",0.0,5.7,84.6,1016.8,266.5,1.7,2.0,275.8,0.08,3.4,7.2,"09:46:44",1
"20/12/19","10:00",0.0,6.0,84.2,1016.8,277.2,2.3,3.9,74.1,0.15,3.6,7.3,"09:54:00",1
"20/12/19","10:10",0.0,6.5,83.7,1016.6,299.2,2.7,7.4,343.9,0.19,4.0,7.3,"10:06:50",1
"20/12/19","10:20",0.0,6.3,82.8,1016.8,276.5,2.7,3.7,291.8,0.17,3.6,7.3,"10:11:12",1
"20/12/19","10:30",0.0,6.3,82.2,1016.8,283.6,2.3,4.0,303.1,0.21,3.5,7.5,"10:28:50",1
"20/12/19","10:40",0.0,6.2,81.6,1016.6,286.2,2.8,5.2,337.4,0.17,3.3,7.7,"10:31:00",1
"20/12/19","10:50",0.0,6.2,80.7,1016.8,285.8,2.2,5.5,337.2,0.14,3.2,7.7,"10:49:10",1
"20/12/19","11:00",0.0,6.3,80.1,1016.6,279.5,2.1,4.2,329.4,0.14,3.2,7.7,"10:55:56",1
"20/12/19","11:10",0.0,6.4,79.2,1016.1,269.3,2.0,4.1,303.7,0.12,3.1,7.8,"11:04:56",1
"20/12/19","11:20",0.0,6.6,78.0,1016.1,291.8,2.3,4.0,315.1,0.11,3.1,7.7,"11:19:08",1
"20/12/19","11:30",0.0,7.0,76.7,1016.4,296.3,1.7,8.8,328.8,0.12,3.2,7.8,"11:29:58",1
"20/12/19","11:40",0.0,7.1,75.4,1015.6,319.8,3.5,9.5,339.5,0.16,3.1,7.9,"11:30:34",1
"20/12/19","11:50",0.0,7.3,74.3,1015.6,313.2,3.2,5.8,331.4,0.18,3.1,8.0,"11:41:36",1
"20/12/19","12:00",0.0,7.8,74.0,1015.9,327.3,3.6,7.3,332.7,0.32,3.5,8.3,"11:57:26",1
"20/12/19","12:10",0.0,7.9,72.6,1015.9,309.1,4.5,7.5,320.8,0.46,3.3,8.4,"12:06:28",1
"20/12/19","12:20",0.0,7.7,71.1,1015.6,329.7,5.9,11.7,340.8,0.40,2.8,8.5,"12:15:42",1
"20/12/19","12:30",0.0,7.9,70.3,1015.6,321.0,5.1,9.7,326.7,0.37,2.9,8.8,"12:28:24",1
"20/12/19","12:40",0.0,7.7,70.6,1015.4,326.6,6.2,10.3,320.9,0.41,2.7,8.9,"12:32:10",1
"20/12/19","12:50",0.0,8.3,70.6,1015.4,316.0,4.9,7.5,330.2,0.42,3.3,9.0,"12:46:24",1
"20/12/19","13:00",0.0,8.1,69.6,1015.6,324.5,6.0,10.0,343.2,0.43,2.9,9.1,"12:55:06",1
"20/12/19","13:10",0.0,8.1,70.4,1015.2,302.9,4.0,7.2,321.3,0.36,3.1,9.3,"13:05:50",1
"20/12/19","13:20",0.0,7.5,71.9,1015.4,319.2,5.0,7.9,334.9,0.31,2.8,9.1,"13:18:24",1
"20/12/19","13:30",0.0,7.8,71.8,1015.4,312.8,4.7,8.6,326.3,0.35,3.1,9.3,"13:27:20",1
"20/12/19","13:40",0.0,7.6,70.3,1014.9,325.0,5.9,10.2,329.6,0.40,2.6,9.2,"13:34:56",1
"20/12/19","13:50",0.0,7.5,70.0,1015.2,329.0,5.1,9.4,346.7,0.35,2.4,9.5,"13:42:16",1
"20/12/19","14:00",0.0,7.6,69.4,1015.4,318.3,5.1,9.0,338.8,0.34,2.4,9.6,"13:57:18",1
"20/12/19","14:10",0.0,7.4,68.1,1015.4,320.5,5.5,8.5,337.3,0.24,1.9,9.4,"14:06:20",1
"20/12/19","14:20",0.0,7.4,67.9,1015.2,312.1,4.5,7.7,335.8,0.19,1.9,9.4,"14:18:48",1
"20/12/19","14:30",0.0,6.9,69.1,1014.9,321.9,5.1,8.5,340.7,0.09,1.7,9.2,"14:22:28",1
"20/12/19","14:40",0.0,6.8,70.1,1015.4,313.2,4.5,8.0,332.2,0.06,1.8,9.1,"14:30:10",1
"20/12/19","14:50",0.0,6.4,71.1,1014.9,327.8,6.1,10.6,331.6,0.03,1.6,9.0,"14:49:20",1
"20/12/19","15:00",0.0,6.3,72.0,1014.9,332.6,7.4,10.9,320.8,0.06,1.7,8.9,"14:59:22",1
"20/12/19","15:10",0.0,6.2,72.5,1014.7,330.7,6.8,10.4,346.1,0.09,1.7,8.8,"15:01:30",1
"20/12/19","15:20",0.0,6.1,72.5,1014.9,334.1,7.1,11.3,313.4,0.05,1.6,8.7,"15:14:32",1
"20/12/19","15:30",0.0,5.9,73.3,1015.2,328.3,6.8,11.0,328.8,0.03,1.5,8.4,"15:21:36",1
"20/12/19","15:40",0.0,6.0,73.5,1015.2,334.3,7.4,12.6,323.9,0.08,1.7,8.6,"15:35:20",1
"20/12/19","15:50",0.0,5.7,74.0,1015.2,328.8,7.4,11.3,316.0,0.03,1.5,8.3,"15:40:26",1
"20/12/19","16:00",0.0,5.4,75.3,1015.6,317.5,6.4,11.6,327.3,0.00,1.4,8.5,"15:50:24",1
"20/12/19","16:10",0.0,5.3,76.2,1015.6,325.7,5.1,9.6,311.5,0.00,1.5,8.1,"16:04:00",1
"20/12/19","16:20",0.0,5.1,76.9,1015.4,319.6,4.2,8.1,327.4,0.00,1.4,8.2,"16:17:04",1
"20/12/19","16:30",0.0,4.9,77.0,1015.4,325.8,6.4,10.9,332.1,0.00,1.3,7.9,"16:25:12",1
"20/12/19","16:40",0.0,5.0,76.1,1015.4,325.6,5.9,9.5,331.5,0.00,1.2,7.8,"16:30:34",1
"20/12/19","16:50",0.0,4.8,75.8,1015.6,323.9,5.5,8.8,328.8,0.00,0.9,7.9,"16:48:26",1
"20/12/19","17:00",0.0,4.9,76.1,1015.6,322.5,5.2,10.0,314.3,0.00,1.1,7.7,"16:55:28",1
"20/12/19","17:10",0.0,4.4,77.4,1015.6,299.6,4.1,6.5,311.1,0.00,0.8,7.7,"17:01:44",1
"20/12/19","17:20",0.0,4.2,79.0,1015.9,305.4,4.0,7.7,334.6,0.00,0.9,7.6,"17:14:48",1
"20/12/19","17:30",0.0,4.2,80.1,1015.4,324.8,5.6,10.6,332.1,0.00,1.1,7.7,"17:28:08",1
"20/12/19","17:40",0.0,4.5,79.4,1015.6,323.2,6.2,11.4,340.6,0.00,1.3,7.5,"17:30:16",1
"20/12/19","17:50",0.0,4.3,79.2,1015.4,315.0,5.0,8.7,335.2,0.00,1.1,7.4,"17:40:02",1
"20/12/19","18:00",0.0,4.2,79.0,1015.6,311.6,4.9,9.3,323.7,0.00,0.9,7.3,"17:51:52",1
"20/12/19","18:10",0.0,4.3,78.7,1015.9,317.3,6.4,10.8,329.3,0.00,1.0,7.2,"18:05:48",1
"20/12/19","18:20",0.0,4.3,78.5,1015.9,319.3,6.4,11.2,336.0,0.00,0.9,7.2,"18:19:56",1
"20/12/19","18:30",0.0,4.4,78.4,1015.9,328.8,8.0,11.3,329.6,0.00,1.0,7.2,"18:20:42",1
"20/12/19","18:40",0.0,4.0,79.2,1016.1,320.8,4.9,8.0,317.4,0.00,0.8,7.0,"18:32:02",1
"20/12/19","18:50",0.0,3.8,80.1,1016.1,317.9,4.5,7.7,335.6,0.00,0.7,6.9,"18:48:00",1
"20/12/19","19:00",0.0,3.8,81.0,1016.1,315.7,5.1,7.7,337.5,0.00,0.9,7.0,"18:54:26",1
"20/12/19","19:10",0.0,3.7,81.8,1016.4,317.4,4.9,7.9,336.0,0.00,0.9,6.8,"19:07:12",1
"20/12/19","19:20",0.0,3.6,82.6,1016.6,311.0,5.0,8.5,318.1,0.00,1.0,7.0,"19:13:20",1
"20/12/19","19:30",0.0,3.6,83.5,1016.6,314.2,5.1,6.8,288.3,0.00,1.1,6.8,"19:27:36",1
"20/12/19","19:40",0.0,3.5,84.5,1016.4,318.3,4.9,8.5,321.6,0.00,1.2,6.9,"19:39:44",1
"20/12/19","19:50",0.0,3.6,85.3,1016.4,317.8,5.1,8.9,338.2,0.00,1.4,6.9,"19:43:28",1
"20/12/19","20:00",0.0,3.4,86.0,1016.8,299.4,4.6,7.3,318.5,0.00,1.3,6.7,"19:54:10",1
"20/12/19","20:10",0.0,3.0,87.1,1016.4,308.9,4.0,5.8,311.6,0.00,1.1,6.6,"20:03:04",1
"20/12/19","20:20",0.0,2.9,87.9,1016.4,308.9,4.0,6.2,325.4,0.00,1.1,6.6,"20:10:24",1
"20/12/19","20:30",0.0,2.9,88.5,1016.6,307.0,4.0,5.1,290.7,0.00,1.2,6.4,"20:26:16",1
"20/12/19","20:40",0.0,2.9,88.8,1016.4,313.2,4.0,5.9,323.8,0.00,1.3,6.4,"20:35:28",1
"20/12/19","20:50",0.0,2.9,89.1,1016.6,303.5,3.6,6.5,316.4,0.00,1.3,6.6,"20:42:32",1
"20/12/19","21:00",0.0,2.8,89.2,1016.4,297.1,2.8,5.6,305.8,0.00,1.2,6.5,"20:56:24",1
"20/12/19","21:10",0.0,2.8,89.4,1016.6,304.8,3.2,6.7,314.1,0.00,1.3,6.4,"21:07:12",1
"20/12/19","21:20",0.0,2.9,89.3,1016.6,296.7,3.5,5.5,313.3,0.00,1.4,6.4,"21:18:48",1
"20/12/19","21:30",0.0,3.1,89.1,1016.8,297.4,3.9,5.7,296.4,0.00,1.5,6.3,"21:27:26",1
"20/12/19","21:40",0.0,3.0,88.8,1016.6,290.5,3.1,4.5,284.2,0.00,1.4,6.4,"21:32:50",1
"20/12/19","21:50",0.0,2.9,88.8,1016.6,304.4,3.2,4.5,306.6,0.00,1.3,6.5,"21:49:08",1
"20/12/19","22:00",0.0,2.9,88.7,1016.8,296.1,3.0,5.0,326.5,0.00,1.3,6.2,"21:51:28",1
"20/12/19","22:10",0.0,2.9,88.6,1016.8,294.7,3.2,4.9,322.5,0.00,1.2,6.2,"22:08:20",1
"20/12/19","22:20",0.0,2.9,88.5,1016.8,285.2,2.6,3.6,279.8,0.00,1.2,6.3,"22:17:08",1
"20/12/19","22:30",0.0,2.8,88.6,1016.8,300.3,3.0,4.4,310.2,0.00,1.1,6.2,"22:22:54",1
"20/12/19","22:40",0.0,2.9,88.7,1017.3,302.8,3.0,4.5,314.6,0.00,1.3,6.3,"22:39:00",1
"20/12/19","22:50",0.0,2.9,88.7,1017.3,291.7,2.5,5.8,316.5,0.00,1.3,6.3,"22:41:04",1
"20/12/19","23:00",0.0,3.1,88.7,1017.3,298.3,2.7,4.3,308.9,0.00,1.5,6.2,"22:54:42",1
"20/12/19","23:10",0.0,3.0,88.7,1017.5,305.6,3.2,4.5,320.9,0.00,1.4,6.1,"23:00:40",1
"20/12/19","23:20",0.0,2.9,88.9,1018.0,309.4,3.4,5.7,293.7,0.00,1.3,6.2,"23:19:06",1
"20/12/19","23:30",0.2,3.1,89.1,1017.3,306.2,3.9,7.1,326.8,0.00,1.5,6.2,"23:25:06",1
"20/12/19","23:40",0.0,2.9,89.2,1017.5,295.2,3.2,4.5,333.6,0.00,1.3,6.2,"23:37:04",1
"20/12/19","23:50",0.0,2.5,89.6,1017.5,287.9,2.8,4.1,313.6,0.00,1.0,6.2,"23:44:00",1
"20/12/19","24:00",0.0,2.3,90.0,1017.1,301.5,3.1,4.4,299.3,0.00,0.9,6.1,"23:51:32",1
